contact: severine.martini@mio.osupytheas.fr, dominique.lefevre@mio.osupytheas.fr
Project:EMSO Ligure-ouest http://www.emso-fr.org/EMSO-France
Sensor Optode, line 4330 Serial 272 
DOI : "https://doi.org/10.17882/97948" 
Title:EMSO Ligure Ouest : Data BathyDock capteur Optode - deploiement "2023-04-28"
Datetime,Profondeur,Latitude,Longitude,optode_type,serial,O2_concentration,O2_saturation,Temperature,Calibrated_Phase,Temp_Compensated_Phase,phase_blue_light,phase_red_light,Amplitude_blue_light,Amplitude_red_light,thermistor_bridge
time,m,degree_north,degree_east,1,1,umol.l-1,%,degree_C,degree,degree,degree,degree,mV,mV,mV
2023-10-08T00:00:08,2420,42.8014,5.9826,4330,272,186.765,57.193,13.304,36.023,36.603,41.196,4.594,295.3,543.2,291.4
2023-10-08T00:03:07,2420,42.8014,5.9826,4330,272,186.986,57.260,13.303,36.009,36.590,41.181,4.591,295.3,543.2,291.5
2023-10-08T00:06:07,2420,42.8014,5.9826,4330,272,186.902,57.235,13.304,36.014,36.594,41.185,4.591,295.3,543.1,291.4
2023-10-08T00:09:07,2420,42.8014,5.9826,4330,272,186.751,57.187,13.303,36.025,36.605,41.198,4.593,295.3,543.1,291.5
2023-10-08T00:12:07,2420,42.8014,5.9826,4330,272,187.083,57.292,13.305,36.002,36.582,41.174,4.592,295.3,543.2,291.4
2023-10-08T00:15:07,2420,42.8014,5.9826,4330,272,186.855,57.219,13.303,36.017,36.598,41.192,4.594,295.4,543.1,291.5
2023-10-08T00:18:07,2420,42.8014,5.9826,4330,272,186.510,57.115,13.304,36.039,36.619,41.211,4.592,295.3,543.1,291.4
2023-10-08T00:21:07,2420,42.8014,5.9826,4330,272,186.784,57.201,13.305,36.020,36.601,41.192,4.591,295.4,543.1,291.4
2023-10-08T00:24:07,2420,42.8014,5.9826,4330,272,186.858,57.220,13.302,36.018,36.598,41.191,4.593,295.4,543.2,291.5
2023-10-08T00:27:07,2420,42.8014,5.9826,4330,272,186.821,57.209,13.303,36.019,36.600,41.195,4.595,295.3,543.2,291.5
2023-10-08T00:30:07,2420,42.8014,5.9826,4330,272,186.280,57.042,13.302,36.055,36.635,41.225,4.590,295.4,543.1,291.5
2023-10-08T00:33:07,2420,42.8014,5.9826,4330,272,186.819,57.210,13.304,36.019,36.599,41.191,4.592,295.3,543.2,291.4
2023-10-08T00:36:07,2420,42.8014,5.9826,4330,272,186.701,57.174,13.304,36.027,36.607,41.203,4.596,295.3,543.2,291.4
2023-10-08T00:39:07,2420,42.8014,5.9826,4330,272,186.853,57.220,13.304,36.017,36.597,41.189,4.592,295.2,543.2,291.4
2023-10-08T00:42:07,2420,42.8014,5.9826,4330,272,186.993,57.262,13.303,36.008,36.589,41.185,4.596,295.3,543.2,291.5
2023-10-08T00:45:07,2420,42.8014,5.9826,4330,272,186.831,57.212,13.303,36.019,36.599,41.195,4.596,295.3,543.2,291.5
2023-10-08T00:48:08,2420,42.8014,5.9826,4330,272,186.901,57.233,13.303,36.015,36.595,41.187,4.592,295.4,543.2,291.5
2023-10-08T00:51:08,2420,42.8014,5.9826,4330,272,186.941,57.245,13.302,36.012,36.592,41.187,4.595,295.3,543.2,291.5
2023-10-08T00:54:08,2420,42.8014,5.9826,4330,272,186.747,57.185,13.302,36.025,36.605,41.195,4.590,295.3,543.2,291.5
2023-10-08T00:57:08,2420,42.8014,5.9826,4330,272,186.707,57.177,13.305,36.026,36.606,41.193,4.587,295.3,543.1,291.4
2023-10-08T01:00:08,2420,42.8014,5.9826,4330,272,186.935,57.244,13.303,36.013,36.593,41.189,4.596,295.4,543.2,291.5
2023-10-08T01:03:07,2420,42.8014,5.9826,4330,272,187.029,57.272,13.303,36.007,36.587,41.179,4.592,295.3,543.2,291.5
2023-10-08T01:06:07,2420,42.8014,5.9826,4330,272,186.781,57.195,13.301,36.024,36.604,41.190,4.586,295.4,543.2,291.5
2023-10-08T01:09:07,2420,42.8014,5.9826,4330,272,186.909,57.235,13.303,36.014,36.594,41.186,4.592,295.4,543.2,291.5
2023-10-08T01:12:07,2420,42.8014,5.9826,4330,272,186.890,57.231,13.303,36.015,36.595,41.191,4.595,295.4,543.1,291.5
2023-10-08T01:15:07,2420,42.8014,5.9826,4330,272,187.066,57.285,13.303,36.004,36.584,41.177,4.593,295.3,543.2,291.4
2023-10-08T01:18:07,2420,42.8014,5.9826,4330,272,187.047,57.277,13.302,36.006,36.586,41.174,4.588,295.3,543.2,291.5
2023-10-08T01:21:07,2420,42.8014,5.9826,4330,272,186.826,57.212,13.304,36.019,36.599,41.186,4.587,295.4,543.1,291.4
2023-10-08T01:24:07,2420,42.8014,5.9826,4330,272,186.879,57.229,13.305,36.015,36.595,41.190,4.595,295.3,543.2,291.4
2023-10-08T01:27:07,2420,42.8014,5.9826,4330,272,186.996,57.261,13.302,36.009,36.589,41.184,4.595,295.3,543.2,291.5
2023-10-08T01:30:08,2420,42.8014,5.9826,4330,272,186.620,57.147,13.303,36.033,36.613,41.206,4.593,295.3,543.2,291.5
2023-10-08T01:33:07,2420,42.8014,5.9826,4330,272,186.946,57.245,13.301,36.012,36.593,41.189,4.597,295.3,543.1,291.5
2023-10-08T01:36:07,2420,42.8014,5.9826,4330,272,186.979,57.255,13.301,36.010,36.590,41.178,4.588,295.3,543.2,291.5
2023-10-08T01:39:07,2420,42.8014,5.9826,4330,272,186.846,57.218,13.304,36.018,36.598,41.187,4.589,295.2,543.1,291.4
2023-10-08T01:42:08,2420,42.8014,5.9826,4330,272,186.819,57.209,13.303,36.020,36.600,41.192,4.591,295.3,543.2,291.5
2023-10-08T01:45:08,2420,42.8014,5.9826,4330,272,186.943,57.246,13.302,36.012,36.592,41.181,4.589,295.4,543.2,291.5
2023-10-08T01:48:08,2420,42.8014,5.9826,4330,272,186.872,57.224,13.302,36.017,36.597,41.189,4.592,295.3,543.2,291.5
2023-10-08T01:51:08,2420,42.8014,5.9826,4330,272,187.065,57.284,13.303,36.004,36.584,41.179,4.595,295.3,543.1,291.4
2023-10-08T01:54:08,2420,42.8014,5.9826,4330,272,186.849,57.219,13.304,36.017,36.598,41.185,4.588,295.3,543.1,291.4
2023-10-08T01:57:08,2420,42.8014,5.9826,4330,272,186.876,57.225,13.303,36.016,36.597,41.191,4.595,295.4,543.1,291.5
2023-10-08T02:00:08,2420,42.8014,5.9826,4330,272,186.873,57.223,13.301,36.017,36.597,41.195,4.598,295.3,543.2,291.5
2023-10-08T02:03:07,2420,42.8014,5.9826,4330,272,186.906,57.235,13.303,36.014,36.595,41.187,4.592,295.4,543.2,291.5
2023-10-08T02:06:07,2420,42.8014,5.9826,4330,272,186.871,57.224,13.303,36.016,36.597,41.190,4.593,295.4,543.1,291.5
2023-10-08T02:09:07,2420,42.8014,5.9826,4330,272,186.866,57.222,13.302,36.017,36.597,41.191,4.594,295.3,543.2,291.5
2023-10-08T02:12:07,2420,42.8014,5.9826,4330,272,186.788,57.199,13.303,36.022,36.602,41.195,4.593,295.4,543.1,291.5
2023-10-08T02:15:07,2420,42.8014,5.9826,4330,272,186.795,57.202,13.304,36.021,36.601,41.192,4.591,295.3,543.2,291.4
2023-10-08T02:18:07,2420,42.8014,5.9826,4330,272,187.070,57.291,13.307,36.002,36.582,41.176,4.594,295.3,543.2,291.3
2023-10-08T02:21:07,2420,42.8014,5.9826,4330,272,186.824,57.212,13.305,36.019,36.599,41.191,4.592,295.3,543.2,291.4
2023-10-08T02:24:07,2420,42.8014,5.9826,4330,272,187.008,57.268,13.304,36.007,36.587,41.181,4.594,295.3,543.2,291.4
2023-10-08T02:27:08,2420,42.8014,5.9826,4330,272,186.921,57.241,13.304,36.013,36.593,41.187,4.594,295.3,543.1,291.4
2023-10-08T02:30:08,2420,42.8014,5.9826,4330,272,186.961,57.250,13.302,36.011,36.591,41.184,4.592,295.3,543.2,291.5
2023-10-08T02:33:07,2420,42.8014,5.9826,4330,272,186.744,57.186,13.303,36.025,36.605,41.198,4.592,295.4,543.2,291.5
2023-10-08T02:36:07,2420,42.8014,5.9826,4330,272,186.902,57.236,13.304,36.014,36.594,41.189,4.595,295.3,543.2,291.4
2023-10-08T02:39:07,2420,42.8014,5.9826,4330,272,186.803,57.202,13.302,36.021,36.602,41.199,4.597,295.4,543.2,291.5
2023-10-08T02:42:07,2420,42.8014,5.9826,4330,272,186.948,57.252,13.306,36.010,36.590,41.179,4.589,295.4,543.2,291.4
2023-10-08T02:45:07,2420,42.8014,5.9826,4330,272,186.958,57.254,13.305,36.010,36.590,41.183,4.593,295.3,543.2,291.4
2023-10-08T02:48:08,2420,42.8014,5.9826,4330,272,186.940,57.246,13.304,36.012,36.592,41.183,4.592,295.3,543.2,291.4
2023-10-08T02:51:08,2420,42.8014,5.9826,4330,272,186.534,57.123,13.304,36.038,36.618,41.208,4.590,295.3,543.2,291.4
2023-10-08T02:54:08,2420,42.8014,5.9826,4330,272,186.785,57.200,13.304,36.022,36.602,41.192,4.590,295.3,543.2,291.4
2023-10-08T02:57:08,2420,42.8014,5.9826,4330,272,187.037,57.279,13.306,36.005,36.585,41.181,4.597,295.3,543.2,291.4
2023-10-08T03:00:08,2420,42.8014,5.9826,4330,272,186.865,57.225,13.305,36.016,36.596,41.193,4.596,295.4,543.2,291.4
2023-10-08T03:03:07,2420,42.8014,5.9826,4330,272,186.833,57.216,13.306,36.017,36.598,41.189,4.592,295.3,543.1,291.4
2023-10-08T03:06:07,2420,42.8014,5.9826,4330,272,186.800,57.201,13.302,36.021,36.602,41.197,4.596,295.3,543.2,291.5
2023-10-08T03:09:07,2420,42.8014,5.9826,4330,272,186.676,57.165,13.303,36.029,36.609,41.202,4.593,295.4,543.3,291.5
2023-10-08T03:12:07,2420,42.8014,5.9826,4330,272,186.668,57.163,13.304,36.029,36.609,41.201,4.592,295.3,543.1,291.4
2023-10-08T03:15:07,2420,42.8014,5.9826,4330,272,186.924,57.240,13.302,36.013,36.593,41.187,4.593,295.3,543.2,291.5
2023-10-08T03:18:07,2420,42.8014,5.9826,4330,272,186.766,57.192,13.303,36.023,36.603,41.193,4.590,295.3,543.2,291.5
2023-10-08T03:21:07,2420,42.8014,5.9826,4330,272,186.727,57.186,13.307,36.024,36.604,41.195,4.591,295.3,543.2,291.3
2023-10-08T03:24:08,2420,42.8014,5.9826,4330,272,186.836,57.215,13.304,36.018,36.598,41.191,4.592,295.3,543.2,291.4
2023-10-08T03:27:08,2420,42.8014,5.9826,4330,272,186.631,57.153,13.304,36.031,36.611,41.203,4.592,295.3,543.2,291.4
2023-10-08T03:30:08,2420,42.8014,5.9826,4330,272,186.821,57.213,13.306,36.018,36.598,41.190,4.592,295.3,543.2,291.4
2023-10-08T03:33:07,2420,42.8014,5.9826,4330,272,186.737,57.183,13.303,36.026,36.606,41.197,4.592,295.3,543.2,291.5
2023-10-08T03:36:07,2420,42.8014,5.9826,4330,272,186.946,57.254,13.308,36.009,36.589,41.186,4.597,295.2,543.2,291.3
2023-10-08T03:39:07,2420,42.8014,5.9826,4330,272,186.711,57.182,13.308,36.025,36.605,41.195,4.590,295.3,543.2,291.3
2023-10-08T03:42:07,2420,42.8014,5.9826,4330,272,186.885,57.232,13.305,36.014,36.595,41.186,4.591,295.4,543.1,291.4
2023-10-08T03:45:07,2420,42.8014,5.9826,4330,272,186.861,57.225,13.306,36.016,36.596,41.188,4.592,295.4,543.2,291.4
2023-10-08T03:48:07,2420,42.8014,5.9826,4330,272,186.626,57.151,13.304,36.032,36.612,41.201,4.590,295.4,543.2,291.4
2023-10-08T03:51:07,2420,42.8014,5.9826,4330,272,186.802,57.207,13.306,36.019,36.599,41.194,4.594,295.3,543.2,291.3
2023-10-08T03:54:07,2420,42.8014,5.9826,4330,272,186.676,57.170,13.307,36.027,36.607,41.197,4.589,295.3,543.2,291.3
2023-10-08T03:57:08,2420,42.8014,5.9826,4330,272,186.704,57.177,13.306,36.026,36.606,41.195,4.589,295.4,543.2,291.4
2023-10-08T04:00:08,2420,42.8014,5.9826,4330,272,186.846,57.221,13.306,36.016,36.596,41.189,4.593,295.4,543.2,291.3
2023-10-08T04:03:07,2420,42.8014,5.9826,4330,272,186.851,57.223,13.307,36.016,36.596,41.188,4.592,295.4,543.1,291.3
2023-10-08T04:06:07,2420,42.8014,5.9826,4330,272,186.910,57.238,13.304,36.013,36.594,41.185,4.592,295.4,543.2,291.4
2023-10-08T04:09:07,2420,42.8014,5.9826,4330,272,187.025,57.282,13.311,36.003,36.583,41.175,4.592,295.3,543.2,291.2
2023-10-08T04:12:07,2420,42.8014,5.9826,4330,272,186.551,57.128,13.304,36.037,36.617,41.205,4.588,295.4,543.2,291.4
2023-10-08T04:15:07,2420,42.8014,5.9826,4330,272,186.805,57.210,13.307,36.019,36.599,41.188,4.590,295.4,543.2,291.3
2023-10-08T04:18:07,2420,42.8014,5.9826,4330,272,186.507,57.122,13.310,36.036,36.617,41.210,4.593,295.4,543.1,291.2
2023-10-08T04:21:07,2420,42.8014,5.9826,4330,272,186.659,57.169,13.311,36.027,36.607,41.198,4.591,295.4,543.1,291.2
2023-10-08T04:24:07,2420,42.8014,5.9826,4330,272,186.847,57.225,13.309,36.015,36.595,41.191,4.596,295.3,543.2,291.2
2023-10-08T04:27:07,2420,42.8014,5.9826,4330,272,186.831,57.226,13.314,36.014,36.594,41.187,4.593,295.4,543.2,291.1
2023-10-08T04:30:07,2420,42.8014,5.9826,4330,272,186.635,57.165,13.313,36.027,36.608,41.199,4.591,295.3,543.1,291.1
2023-10-08T04:33:07,2420,42.8014,5.9826,4330,272,186.799,57.208,13.307,36.019,36.599,41.189,4.590,295.4,543.1,291.3
2023-10-08T04:36:07,2420,42.8014,5.9826,4330,272,186.692,57.177,13.309,36.025,36.605,41.199,4.594,295.4,543.2,291.3
2023-10-08T04:39:07,2420,42.8014,5.9826,4330,272,186.683,57.179,13.313,36.024,36.604,41.196,4.592,295.4,543.2,291.1
2023-10-08T04:42:07,2420,42.8014,5.9826,4330,272,186.703,57.182,13.310,36.024,36.604,41.193,4.589,295.4,543.2,291.2
2023-10-08T04:45:07,2420,42.8014,5.9826,4330,272,186.835,57.228,13.314,36.013,36.593,41.187,4.594,295.4,543.1,291.1
2023-10-08T04:48:07,2420,42.8014,5.9826,4330,272,186.791,57.212,13.312,36.017,36.597,41.188,4.591,295.4,543.1,291.1
2023-10-08T04:51:08,2420,42.8014,5.9826,4330,272,186.687,57.172,13.306,36.027,36.607,41.197,4.589,295.4,543.1,291.4
2023-10-08T04:54:08,2420,42.8014,5.9826,4330,272,186.699,57.172,13.303,36.028,36.608,41.199,4.591,295.4,543.3,291.4
2023-10-08T04:57:08,2420,42.8014,5.9826,4330,272,186.731,57.191,13.310,36.022,36.603,41.192,4.590,295.4,543.1,291.2
2023-10-08T05:00:08,2420,42.8014,5.9826,4330,272,186.894,57.242,13.311,36.011,36.591,41.187,4.595,295.4,543.2,291.2
2023-10-08T05:03:07,2420,42.8014,5.9826,4330,272,186.607,57.155,13.312,36.029,36.609,41.197,4.588,295.4,543.1,291.2
2023-10-08T05:06:07,2420,42.8014,5.9826,4330,272,186.631,57.155,13.306,36.030,36.611,41.201,4.590,295.4,543.1,291.4
2023-10-08T05:09:07,2420,42.8014,5.9826,4330,272,186.816,57.212,13.307,36.019,36.599,41.191,4.592,295.3,543.2,291.3
2023-10-08T05:12:07,2420,42.8014,5.9826,4330,272,186.932,57.251,13.309,36.010,36.590,41.184,4.594,295.3,543.1,291.3
2023-10-08T05:15:07,2420,42.8014,5.9826,4330,272,186.886,57.240,13.312,36.012,36.592,41.191,4.599,295.4,543.1,291.2
2023-10-08T05:18:07,2420,42.8014,5.9826,4330,272,186.759,57.205,13.315,36.018,36.598,41.191,4.593,295.4,543.2,291.1
2023-10-08T05:21:07,2420,42.8014,5.9826,4330,272,186.733,57.203,13.319,36.018,36.598,41.192,4.594,295.3,543.1,290.9
2023-10-08T05:24:08,2420,42.8014,5.9826,4330,272,186.676,57.170,13.307,36.027,36.607,41.203,4.596,295.4,543.1,291.3
2023-10-08T05:27:08,2420,42.8014,5.9826,4330,272,186.728,57.187,13.308,36.023,36.603,41.196,4.592,295.3,543.2,291.3
2023-10-08T05:30:08,2420,42.8014,5.9826,4330,272,186.759,57.212,13.320,36.016,36.596,41.189,4.593,295.3,543.1,290.9
2023-10-08T05:33:07,2420,42.8014,5.9826,4330,272,186.748,57.195,13.309,36.021,36.602,41.198,4.596,295.3,543.2,291.2
2023-10-08T05:36:07,2420,42.8014,5.9826,4330,272,186.841,57.227,13.312,36.014,36.594,41.186,4.592,295.3,543.2,291.1
2023-10-08T05:39:07,2420,42.8014,5.9826,4330,272,186.780,57.212,13.315,36.016,36.597,41.188,4.592,295.4,543.1,291.0
2023-10-08T05:42:08,2420,42.8014,5.9826,4330,272,186.672,57.182,13.317,36.023,36.603,41.191,4.588,295.4,543.1,291.0
2023-10-08T05:45:08,2420,42.8014,5.9826,4330,272,186.486,57.116,13.311,36.038,36.618,41.211,4.592,295.4,543.1,291.2
2023-10-08T05:48:08,2420,42.8014,5.9826,4330,272,186.642,57.163,13.310,36.027,36.607,41.198,4.590,295.4,543.1,291.2
2023-10-08T05:51:08,2420,42.8014,5.9826,4330,272,186.672,57.179,13.315,36.023,36.604,41.193,4.590,295.4,543.1,291.1
2023-10-08T05:54:07,2420,42.8014,5.9826,4330,272,186.564,57.146,13.315,36.031,36.611,41.201,4.590,295.5,543.2,291.1
2023-10-08T05:57:07,2420,42.8014,5.9826,4330,272,186.617,57.161,13.314,36.027,36.608,41.202,4.595,295.3,543.1,291.1
2023-10-08T06:00:07,2420,42.8014,5.9826,4330,272,186.556,57.147,13.318,36.030,36.610,41.200,4.590,295.3,543.1,291.0
2023-10-08T06:03:07,2420,42.8014,5.9826,4330,272,186.517,57.123,13.309,36.036,36.616,41.206,4.590,295.4,543.1,291.3
2023-10-08T06:06:07,2420,42.8014,5.9826,4330,272,186.820,57.211,13.305,36.019,36.599,41.192,4.593,295.4,543.2,291.4
2023-10-08T06:09:07,2420,42.8014,5.9826,4330,272,186.714,57.183,13.308,36.024,36.604,41.194,4.590,295.4,543.2,291.3
2023-10-08T06:12:07,2420,42.8014,5.9826,4330,272,186.695,57.178,13.309,36.025,36.605,41.197,4.592,295.4,543.1,291.3
2023-10-08T06:15:07,2420,42.8014,5.9826,4330,272,186.462,57.118,13.317,36.036,36.616,41.208,4.592,295.4,543.1,291.0
2023-10-08T06:18:07,2420,42.8014,5.9826,4330,272,186.607,57.153,13.311,36.030,36.610,41.204,4.594,295.3,543.1,291.2
2023-10-08T06:21:07,2420,42.8014,5.9826,4330,272,186.848,57.232,13.314,36.012,36.593,41.182,4.589,295.3,543.1,291.1
2023-10-08T06:24:08,2420,42.8014,5.9826,4330,272,186.821,57.217,13.309,36.017,36.597,41.190,4.593,295.4,543.1,291.3
2023-10-08T06:27:08,2420,42.8014,5.9826,4330,272,186.621,57.164,13.315,36.027,36.607,41.198,4.592,295.3,543.1,291.1
2023-10-08T06:30:08,2420,42.8014,5.9826,4330,272,186.771,57.208,13.314,36.018,36.598,41.192,4.593,295.4,543.1,291.1
2023-10-08T06:33:07,2420,42.8014,5.9826,4330,272,186.559,57.139,13.311,36.033,36.613,41.205,4.592,295.4,543.2,291.2
2023-10-08T06:36:07,2420,42.8014,5.9826,4330,272,186.669,57.170,13.309,36.027,36.607,41.202,4.595,295.4,543.2,291.3
2023-10-08T06:39:07,2420,42.8014,5.9826,4330,272,186.675,57.178,13.314,36.024,36.604,41.196,4.592,295.4,543.1,291.1
2023-10-08T06:42:07,2420,42.8014,5.9826,4330,272,186.498,57.121,13.312,36.037,36.617,41.209,4.593,295.4,543.0,291.2
2023-10-08T06:45:07,2420,42.8014,5.9826,4330,272,186.705,57.189,13.315,36.021,36.602,41.194,4.592,295.3,543.1,291.1
2023-10-08T06:48:07,2420,42.8014,5.9826,4330,272,186.701,57.181,13.310,36.024,36.604,41.198,4.594,295.3,543.1,291.2
2023-10-08T06:51:07,2420,42.8014,5.9826,4330,272,186.678,57.185,13.318,36.022,36.602,41.197,4.595,295.4,543.1,291.0
2023-10-08T06:54:07,2420,42.8014,5.9826,4330,272,186.706,57.192,13.317,36.020,36.601,41.191,4.590,295.4,543.0,291.0
2023-10-08T06:57:07,2420,42.8014,5.9826,4330,272,186.515,57.125,13.311,36.036,36.616,41.207,4.591,295.4,543.1,291.2
2023-10-08T07:00:08,2420,42.8014,5.9826,4330,272,186.506,57.126,13.314,36.035,36.615,41.208,4.593,295.4,543.2,291.1
2023-10-08T07:03:07,2420,42.8014,5.9826,4330,272,186.732,57.191,13.310,36.022,36.602,41.199,4.597,295.4,543.2,291.2
2023-10-08T07:06:07,2420,42.8014,5.9826,4330,272,186.570,57.159,13.324,36.026,36.606,41.200,4.594,295.4,543.2,290.8
2023-10-08T07:09:07,2420,42.8014,5.9826,4330,272,186.423,57.107,13.319,36.038,36.618,41.207,4.589,295.4,543.0,290.9
2023-10-08T07:12:07,2420,42.8014,5.9826,4330,272,186.748,57.206,13.318,36.017,36.597,41.190,4.593,295.4,543.1,291.0
2023-10-08T07:15:07,2420,42.8014,5.9826,4330,272,186.477,57.116,13.312,36.037,36.617,41.205,4.588,295.4,543.1,291.1
2023-10-08T07:18:08,2420,42.8014,5.9826,4330,272,186.601,57.171,13.326,36.023,36.603,41.197,4.594,295.4,543.0,290.7
2023-10-08T07:21:08,2420,42.8014,5.9826,4330,272,186.596,57.158,13.317,36.028,36.608,41.204,4.596,295.4,543.1,291.0
2023-10-08T07:24:08,2420,42.8014,5.9826,4330,272,186.650,57.182,13.323,36.021,36.601,41.191,4.590,295.3,543.1,290.8
2023-10-08T07:27:08,2420,42.8014,5.9826,4330,272,186.598,57.167,13.323,36.024,36.604,41.196,4.591,295.3,543.1,290.8
2023-10-08T07:30:08,2420,42.8014,5.9826,4330,272,186.631,57.176,13.323,36.023,36.603,41.193,4.590,295.4,543.1,290.8
2023-10-08T07:33:07,2420,42.8014,5.9826,4330,272,186.434,57.120,13.326,36.034,36.614,41.209,4.595,295.4,543.1,290.7
2023-10-08T07:36:07,2420,42.8014,5.9826,4330,272,186.698,57.187,13.316,36.022,36.602,41.195,4.593,295.5,543.1,291.0
2023-10-08T07:39:07,2420,42.8014,5.9826,4330,272,186.547,57.139,13.314,36.032,36.612,41.203,4.591,295.5,543.1,291.1
2023-10-08T07:42:07,2420,42.8014,5.9826,4330,272,186.648,57.180,13.322,36.022,36.602,41.199,4.597,295.4,543.1,290.8
2023-10-08T07:45:07,2420,42.8014,5.9826,4330,272,186.445,57.113,13.318,36.037,36.617,41.208,4.591,295.5,543.0,291.0
2023-10-08T07:48:07,2420,42.8014,5.9826,4330,272,186.546,57.148,13.321,36.029,36.609,41.202,4.592,295.4,543.1,290.9
2023-10-08T07:51:07,2420,42.8014,5.9826,4330,272,186.381,57.099,13.322,36.039,36.619,41.209,4.590,295.4,543.0,290.8
2023-10-08T07:54:07,2420,42.8014,5.9826,4330,272,186.573,57.161,13.325,36.026,36.606,41.202,4.597,295.4,543.0,290.8
2023-10-08T07:57:07,2420,42.8014,5.9826,4330,272,186.635,57.163,13.311,36.028,36.608,41.200,4.592,295.5,543.1,291.2
2023-10-08T08:00:07,2420,42.8014,5.9826,4330,272,186.626,57.175,13.323,36.023,36.603,41.198,4.595,295.5,543.1,290.8
2023-10-08T08:03:07,2420,42.8014,5.9826,4330,272,186.643,57.182,13.324,36.021,36.601,41.195,4.595,295.4,543.1,290.8
2023-10-08T08:06:07,2420,42.8014,5.9826,4330,272,186.551,57.131,13.307,36.036,36.616,41.207,4.592,295.4,543.1,291.3
2023-10-08T08:09:07,2420,42.8014,5.9826,4330,272,186.473,57.135,13.329,36.030,36.610,41.205,4.595,295.4,543.1,290.6
2023-10-08T08:12:07,2420,42.8014,5.9826,4330,272,186.512,57.134,13.318,36.033,36.613,41.205,4.592,295.4,543.0,291.0
2023-10-08T08:15:07,2420,42.8014,5.9826,4330,272,186.173,57.037,13.324,36.052,36.632,41.226,4.594,295.5,543.1,290.8
2023-10-08T08:18:08,2420,42.8014,5.9826,4330,272,186.543,57.138,13.314,36.033,36.613,41.204,4.592,295.5,543.1,291.1
2023-10-08T08:21:08,2420,42.8014,5.9826,4330,272,186.663,57.178,13.317,36.024,36.604,41.195,4.591,295.5,543.1,291.0
2023-10-08T08:24:08,2420,42.8014,5.9826,4330,272,186.257,57.050,13.314,36.051,36.631,41.230,4.598,295.5,543.0,291.1
2023-10-08T08:27:08,2420,42.8014,5.9826,4330,272,186.426,57.107,13.318,36.038,36.618,41.217,4.599,295.5,543.1,291.0
2023-10-08T08:30:08,2420,42.8014,5.9826,4330,272,186.487,57.127,13.318,36.034,36.614,41.209,4.594,295.5,543.1,291.0
2023-10-08T08:33:07,2420,42.8014,5.9826,4330,272,186.092,57.012,13.324,36.057,36.637,41.230,4.593,295.5,543.1,290.8
2023-10-08T08:36:07,2420,42.8014,5.9826,4330,272,186.447,57.116,13.320,36.036,36.616,41.206,4.590,295.5,543.1,290.9
2023-10-08T08:39:07,2420,42.8014,5.9826,4330,272,186.727,57.206,13.323,36.016,36.596,41.193,4.597,295.5,543.1,290.8
2023-10-08T08:42:07,2420,42.8014,5.9826,4330,272,186.415,57.101,13.315,36.040,36.620,41.210,4.589,295.5,543.0,291.1
2023-10-08T08:45:07,2420,42.8014,5.9826,4330,272,186.681,57.180,13.313,36.024,36.604,41.195,4.591,295.5,543.1,291.1
2023-10-08T08:48:07,2420,42.8014,5.9826,4330,272,186.511,57.127,13.313,36.035,36.615,41.208,4.594,295.5,543.2,291.1
2023-10-08T08:51:07,2420,42.8014,5.9826,4330,272,186.669,57.176,13.314,36.025,36.605,41.201,4.596,295.5,543.1,291.1
2023-10-08T08:54:07,2420,42.8014,5.9826,4330,272,186.470,57.129,13.325,36.032,36.612,41.205,4.593,295.4,543.1,290.7
2023-10-08T08:57:08,2420,42.8014,5.9826,4330,272,186.610,57.163,13.318,36.026,36.606,41.197,4.591,295.5,543.1,291.0
2023-10-08T09:00:08,2420,42.8014,5.9826,4330,272,186.685,57.193,13.323,36.019,36.599,41.193,4.593,295.4,543.1,290.8
2023-10-08T09:03:07,2420,42.8014,5.9826,4330,272,186.560,57.152,13.321,36.028,36.608,41.200,4.592,295.5,543.0,290.9
2023-10-08T09:06:07,2420,42.8014,5.9826,4330,272,186.521,57.148,13.327,36.027,36.607,41.206,4.599,295.5,543.1,290.7
2023-10-08T09:09:07,2420,42.8014,5.9826,4330,272,186.792,57.216,13.316,36.016,36.596,41.189,4.593,295.5,543.1,291.0
2023-10-08T09:12:07,2420,42.8014,5.9826,4330,272,186.501,57.139,13.325,36.030,36.610,41.200,4.590,295.4,543.0,290.7
2023-10-08T09:15:07,2420,42.8014,5.9826,4330,272,186.455,57.129,13.328,36.032,36.612,41.206,4.594,295.5,543.0,290.6
2023-10-08T09:18:07,2420,42.8014,5.9826,4330,272,186.422,57.101,13.314,36.040,36.620,41.213,4.593,295.6,543.0,291.1
2023-10-08T09:21:07,2420,42.8014,5.9826,4330,272,186.504,57.141,13.326,36.029,36.609,41.200,4.591,295.5,543.1,290.7
2023-10-08T09:24:07,2420,42.8014,5.9826,4330,272,186.673,57.182,13.317,36.022,36.602,41.197,4.595,295.5,543.0,291.0
2023-10-08T09:27:07,2420,42.8014,5.9826,4330,272,186.390,57.105,13.325,36.037,36.617,41.206,4.589,295.4,543.0,290.7
2023-10-08T09:30:08,2420,42.8014,5.9826,4330,272,186.368,57.097,13.324,36.039,36.619,41.207,4.587,295.5,543.0,290.8
2023-10-08T09:33:07,2420,42.8014,5.9826,4330,272,186.587,57.147,13.310,36.031,36.612,41.208,4.597,295.4,543.1,291.2
2023-10-08T09:36:07,2420,42.8014,5.9826,4330,272,186.714,57.193,13.316,36.020,36.600,41.198,4.597,295.4,543.1,291.0
2023-10-08T09:39:07,2420,42.8014,5.9826,4330,272,186.265,57.055,13.316,36.050,36.630,41.219,4.589,295.4,543.1,291.0
2023-10-08T09:42:07,2420,42.8014,5.9826,4330,272,186.541,57.153,13.326,36.027,36.607,41.200,4.594,295.4,543.0,290.7
2023-10-08T09:45:07,2420,42.8014,5.9826,4330,272,186.711,57.190,13.315,36.021,36.601,41.194,4.593,295.5,543.1,291.1
2023-10-08T09:48:08,2420,42.8014,5.9826,4330,272,186.626,57.181,13.328,36.020,36.600,41.195,4.595,295.4,543.1,290.7
2023-10-08T09:51:08,2420,42.8014,5.9826,4330,272,186.313,57.071,13.317,36.046,36.626,41.216,4.590,295.4,543.0,291.0
2023-10-08T09:54:08,2420,42.8014,5.9826,4330,272,186.476,57.121,13.317,36.035,36.615,41.207,4.592,295.5,543.1,291.0
2023-10-08T09:57:08,2420,42.8014,5.9826,4330,272,186.765,57.203,13.311,36.019,36.599,41.195,4.596,295.5,543.1,291.2
2023-10-08T10:00:08,2420,42.8014,5.9826,4330,272,186.591,57.156,13.316,36.028,36.608,41.200,4.592,295.5,543.1,291.0